Time,TemperatureF,DewpointF,PressureIn,WindDirection,WindDirectionDegrees,WindSpeedMPH,WindSpeedGustMPH,Humidity,HourlyPrecipIn,Conditions,Clouds,dailyrainin,SolarRadiationWatts/m^2,SoftwareType,DateUTC
2019-01-16 00:00:07,33.9,24.0,30.09,North,5,2.0,5.0,67,0.00,,,0.00,0.00,weatherlink.com 1.10,2019-01-15 23:00:07,
2019-01-16 00:15:10,33.8,24.0,30.09,NE,37,3.0,5.0,67,0.00,,,0.00,0.00,weatherlink.com 1.10,2019-01-15 23:15:10,
2019-01-16 00:30:11,33.8,24.0,30.09,North,360,3.0,5.0,67,0.00,,,0.00,0.00,weatherlink.com 1.10,2019-01-15 23:30:11,
2019-01-16 00:45:12,33.7,24.0,30.09,North,351,2.0,5.0,67,0.00,,,0.00,0.00,weatherlink.com 1.10,2019-01-15 23:45:12,
2019-01-16 01:00:15,33.9,24.0,30.09,NNE,14,3.0,5.0,66,0.00,,,0.00,0.00,weatherlink.com 1.10,2019-01-16 00:00:15,
2019-01-16 01:15:17,33.4,23.0,30.09,North,355,3.0,4.0,67,0.00,,,0.00,0.00,weatherlink.com 1.10,2019-01-16 00:15:17,
2019-01-16 01:30:18,33.5,24.0,30.09,NNE,24,3.0,4.0,67,0.00,,,0.00,0.00,weatherlink.com 1.10,2019-01-16 00:30:18,
2019-01-16 01:45:19,33.4,23.0,30.09,NNE,24,3.0,5.0,67,0.00,,,0.00,0.00,weatherlink.com 1.10,2019-01-16 00:45:19,
2019-01-16 02:00:21,33.7,23.0,30.09,NE,46,3.0,7.0,66,0.00,,,0.00,0.00,weatherlink.com 1.10,2019-01-16 01:00:21,
2019-01-16 02:15:22,33.9,23.0,30.09,NE,38,4.0,8.0,65,0.00,,,0.00,0.00,weatherlink.com 1.10,2019-01-16 01:15:22,
2019-01-16 02:30:24,34.3,23.0,30.09,NNE,16,4.0,8.0,64,0.00,,,0.00,0.00,weatherlink.com 1.10,2019-01-16 01:30:24,
2019-01-16 02:45:27,34.5,23.0,30.09,NE,39,6.0,9.0,64,0.00,,,0.00,0.00,weatherlink.com 1.10,2019-01-16 01:45:27,
2019-01-16 03:00:30,35.3,23.0,30.10,NE,40,5.0,10.0,62,0.00,,,0.00,0.00,weatherlink.com 1.10,2019-01-16 02:00:30,
2019-01-16 03:15:32,35.6,23.0,30.10,NNE,32,6.0,8.0,61,0.00,,,0.00,0.00,weatherlink.com 1.10,2019-01-16 02:15:32,
2019-01-16 03:30:32,35.3,23.0,30.09,NE,36,4.0,8.0,61,0.00,,,0.00,0.00,weatherlink.com 1.10,2019-01-16 02:30:32,
2019-01-16 03:45:34,34.8,23.0,30.09,NE,40,5.0,6.0,63,0.00,,,0.00,0.00,weatherlink.com 1.10,2019-01-16 02:45:34,
2019-01-16 04:00:35,34.7,23.0,30.09,NNE,29,4.0,8.0,63,0.00,,,0.00,0.00,weatherlink.com 1.10,2019-01-16 03:00:35,
2019-01-16 04:15:36,35.1,23.0,30.09,NNE,30,5.0,8.0,62,0.00,,,0.00,0.00,weatherlink.com 1.10,2019-01-16 03:15:36,
2019-01-16 04:30:37,35.1,23.0,30.08,NE,38,5.0,8.0,62,0.00,,,0.00,0.00,weatherlink.com 1.10,2019-01-16 03:30:37,
2019-01-16 04:45:38,35.1,23.0,30.08,NE,37,4.0,8.0,62,0.00,,,0.00,0.00,weatherlink.com 1.10,2019-01-16 03:45:38,
2019-01-16 05:00:40,35.1,23.0,30.08,North,5,4.0,7.0,61,0.00,,,0.00,0.00,weatherlink.com 1.10,2019-01-16 04:00:40,
2019-01-16 05:15:41,35.3,23.0,30.08,NE,45,4.0,6.0,61,0.00,,,0.00,0.00,weatherlink.com 1.10,2019-01-16 04:15:41,
2019-01-16 05:30:42,35.1,23.0,30.08,North,5,1.0,5.0,61,0.00,,,0.00,0.00,weatherlink.com 1.10,2019-01-16 04:30:42,
2019-01-16 05:45:43,35.2,23.0,30.07,NE,41,3.0,6.0,61,0.00,,,0.00,0.00,weatherlink.com 1.10,2019-01-16 04:45:43,
2019-01-16 06:00:45,34.9,23.0,30.07,NE,35,3.0,5.0,62,0.00,,,0.00,0.00,weatherlink.com 1.10,2019-01-16 05:00:45,
2019-01-16 06:15:45,35.4,23.0,30.07,NNE,26,5.0,9.0,61,0.00,,,0.00,0.00,weatherlink.com 1.10,2019-01-16 05:15:45,
2019-01-16 06:30:46,35.3,23.0,30.08,NE,38,3.0,6.0,61,0.00,,,0.00,0.00,weatherlink.com 1.10,2019-01-16 05:30:46,
2019-01-16 06:45:47,35.2,23.0,30.08,NE,36,4.0,5.0,61,0.00,,,0.00,0.00,weatherlink.com 1.10,2019-01-16 05:45:47,
2019-01-16 07:00:48,34.8,23.0,30.08,NNE,32,4.0,5.0,62,0.00,,,0.00,0.00,weatherlink.com 1.10,2019-01-16 06:00:48,
2019-01-16 07:15:48,35.1,23.0,30.08,North,360,4.0,5.0,62,0.00,,,0.00,0.00,weatherlink.com 1.10,2019-01-16 06:15:48,
2019-01-16 07:30:48,35.2,23.0,30.08,NE,37,3.0,5.0,62,0.00,,,0.00,0.00,weatherlink.com 1.10,2019-01-16 06:30:48,
2019-01-16 07:45:49,35.3,23.0,30.08,NNE,27,3.0,7.0,62,0.00,,,0.00,0.00,weatherlink.com 1.10,2019-01-16 06:45:49,